Hourly Weather Bolshoe Polushino

Today, 24 July, Saturday

Time Temperature Precipitation Wind Pressure Humidity
00:00 +13°C° 0 mm 2 mps 739 mmHg 84%
01:00 +13°C° 0 mm 2 mps 740 mmHg 85%
02:00 +12°C° 0 mm 2 mps 740 mmHg 88%
03:00 +13°C° 0 mm 2 mps 740 mmHg 86%
04:00 +13°C° 0 mm 2 mps 740 mmHg 84%
05:00 +14°C° 0 mm 2 mps 740 mmHg 83%
06:00 +14°C° 0 mm 2 mps 740 mmHg 79%
07:00 +15°C° 0 mm 2 mps 741 mmHg 75%
08:00 +16°C° 0 mm 2 mps 741 mmHg 70%
09:00 +17°C° 0 mm 2 mps 741 mmHg 62%
10:00 +18°C° 0 mm 2 mps 742 mmHg 54%
11:00 +19°C° 0 mm 2 mps 742 mmHg 45%
12:00 +20°C° 0 mm 2 mps 742 mmHg 44%
13:00 +20°C° 0 mm 3 mps 742 mmHg 43%
14:00 +21°C° 0 mm 3 mps 742 mmHg 42%
15:00 +20°C° 0 mm 2 mps 743 mmHg 45%
16:00 +20°C° 0 mm 2 mps 743 mmHg 48%
17:00 +19°C° 0 mm 2 mps 743 mmHg 51%
18:00 +18°C° 0 mm 2 mps 743 mmHg 58%
19:00 +16°C° 0 mm 1 mps 744 mmHg 64%
20:00 +14°C° 0 mm 1 mps 744 mmHg 70%
21:00 +13°C° 0 mm 1 mps 744 mmHg 71%
22:00 +13°C° 0 mm 1 mps 744 mmHg 72%
23:00 +11°C° 0 mm 0 mps 745 mmHg 72%

Tomorrow, 25 July, Sunday

Time Temperature Precipitation Wind Pressure Humidity
00:00 +11°C° 0 mm 0 mps 745 mmHg 72%
01:00 +12°C° 0 mm 1 mps 745 mmHg 72%
02:00 +12°C° 0 mm 1 mps 745 mmHg 72%
03:00 +12°C° 0 mm 1 mps 745 mmHg 70%
04:00 +13°C° 0 mm 1 mps 746 mmHg 68%
05:00 +14°C° 0 mm 1 mps 746 mmHg 65%
06:00 +15°C° 0 mm 1 mps 746 mmHg 64%
07:00 +16°C° 0 mm 1 mps 746 mmHg 63%
08:00 +18°C° 0 mm 1 mps 747 mmHg 61%
09:00 +19°C° 0 mm 1 mps 747 mmHg 56%
10:00 +19°C° 0 mm 2 mps 747 mmHg 52%
11:00 +21°C° 0 mm 2 mps 747 mmHg 47%
12:00 +23°C° 0 mm 2 mps 747 mmHg 44%
13:00 +24°C° 0 mm 2 mps 747 mmHg 41%
14:00 +25°C° 0 mm 2 mps 747 mmHg 38%
15:00 +24°C° 0 mm 1 mps 747 mmHg 43%
16:00 +24°C° 0 mm 1 mps 747 mmHg 48%
17:00 +23°C° 0 mm 1 mps 747 mmHg 52%
18:00 +22°C° 0 mm 1 mps 747 mmHg 54%
19:00 +21°C° 0 mm 1 mps 747 mmHg 56%
20:00 +20°C° 0 mm 1 mps 747 mmHg 58%
21:00 +19°C° 0 mm 1 mps 748 mmHg 59%
22:00 +19°C° 0 mm 1 mps 748 mmHg 60%
23:00 +19°C° 0 mm 1 mps 748 mmHg 61%

Day after tomorrow, 26 July, Monday

Time Temperature Precipitation Wind Pressure Humidity
00:00 +18°C° 0 mm 1 mps 748 mmHg 62%
01:00 +18°C° 0 mm 1 mps 748 mmHg 63%
02:00 +18°C° 0 mm 1 mps 748 mmHg 63%
03:00 +18°C° 0 mm 1 mps 748 mmHg 65%
04:00 +18°C° 0 mm 1 mps 748 mmHg 66%
05:00 +18°C° 0 mm 1 mps 749 mmHg 67%
06:00 +18°C° 0 mm 2 mps 749 mmHg 65%
07:00 +19°C° 0 mm 2 mps 749 mmHg 63%
08:00 +20°C° 0 mm 2 mps 749 mmHg 61%
09:00 +23°C° 0 mm 2 mps 749 mmHg 56%
10:00 +24°C° 0 mm 2 mps 749 mmHg 52%
11:00 +26°C° 0 mm 2 mps 749 mmHg 47%
12:00 +25°C° 0 mm 2 mps 749 mmHg 49%
13:00 +25°C° 0 mm 2 mps 749 mmHg 50%
14:00 +25°C° 0 mm 2 mps 748 mmHg 52%
15:00 +24°C° 0 mm 2 mps 748 mmHg 55%
16:00 +24°C° 0 mm 2 mps 748 mmHg 58%
17:00 +23°C° 0 mm 2 mps 748 mmHg 61%
18:00 +21°C° 0 mm 2 mps 748 mmHg 65%
19:00 +20°C° 0 mm 2 mps 748 mmHg 70%
20:00 +18°C° 0 mm 2 mps 748 mmHg 74%
21:00 +19°C° 0 mm 1 mps 748 mmHg 77%
22:00 +18°C° 0 mm 1 mps 748 mmHg 79%
23:00 +16°C° 0 mm 1 mps 749 mmHg 82%

27 July, Tuesday

Time Temperature Precipitation Wind Pressure Humidity
00:00 +16°C° 0 mm 1 mps 749 mmHg 83%
01:00 +16°C° 0 mm 1 mps 749 mmHg 83%
02:00 +15°C° 0 mm 2 mps 748 mmHg 84%
03:00 +16°C° 0 mm 1 mps 748 mmHg 83%
04:00 +16°C° 0 mm 1 mps 748 mmHg 83%
05:00 +16°C° 0 mm 1 mps 748 mmHg 82%
06:00 +19°C° 0 mm 1 mps 748 mmHg 75%
07:00 +20°C° 0 mm 2 mps 748 mmHg 68%
08:00 +23°C° 0 mm 2 mps 748 mmHg 62%
09:00 +25°C° 0 mm 2 mps 748 mmHg 56%
10:00 +26°C° 0 mm 2 mps 748 mmHg 51%
11:00 +28°C° 0 mm 2 mps 748 mmHg 46%
12:00 +28°C° 0 mm 2 mps 748 mmHg 44%
13:00 +28°C° 0 mm 2 mps 747 mmHg 43%
14:00 +29°C° 0 mm 2 mps 747 mmHg 42%
15:00 +28°C° 0 mm 1 mps 747 mmHg 48%
16:00 +27°C° 0 mm 1 mps 746 mmHg 55%
17:00 +25°C° 0 mm 1 mps 746 mmHg 61%
18:00 +24°C° 0 mm 1 mps 746 mmHg 64%
19:00 +23°C° 0 mm 1 mps 746 mmHg 66%
20:00 +20°C° 0 mm 0 mps 746 mmHg 68%
21:00 +22°C° 0 mm 1 mps 746 mmHg 70%
22:00 +21°C° 0 mm 1 mps 746 mmHg 71%
23:00 +21°C° 0 mm 1 mps 746 mmHg 72%

28 July, Wednesday

Time Temperature Precipitation Wind Pressure Humidity
00:00 +20°C° 0 mm 1 mps 746 mmHg 74%
01:00 +20°C° 0 mm 1 mps 746 mmHg 76%
02:00 +19°C° 0 mm 1 mps 745 mmHg 78%
03:00 +19°C° 0 mm 1 mps 745 mmHg 79%
04:00 +19°C° 0 mm 1 mps 745 mmHg 80%
05:00 +19°C° 0 mm 1 mps 745 mmHg 81%
06:00 +21°C° 0 mm 1 mps 745 mmHg 73%
07:00 +23°C° 0 mm 2 mps 744 mmHg 64%
08:00 +25°C° 0 mm 2 mps 744 mmHg 56%
09:00 +26°C° 0 mm 2 mps 744 mmHg 51%
10:00 +28°C° 0 mm 2 mps 744 mmHg 45%
11:00 +29°C° 0 mm 2 mps 743 mmHg 40%
12:00 +29°C° 0 mm 2 mps 743 mmHg 40%
13:00 +29°C° 0 mm 3 mps 743 mmHg 40%
14:00 +29°C° 0 mm 3 mps 742 mmHg 41%
15:00 +29°C° 0 mm 3 mps 742 mmHg 43%
16:00 +28°C° 0 mm 2 mps 741 mmHg 45%
17:00 +28°C° 0 mm 2 mps 741 mmHg 47%
18:00 +26°C° 0 mm 3 mps 741 mmHg 56%
19:00 +24°C° 0 mm 3 mps 741 mmHg 65%
20:00 +20°C° 0 mm 3 mps 741 mmHg 74%
21:00 +20°C° 0 mm 3 mps 741 mmHg 80%
22:00 +19°C° 0 mm 2 mps 740 mmHg 85%
23:00 +19°C° 0 mm 1 mps 740 mmHg 91%

29 July, Thursday

Time Temperature Precipitation Wind Pressure Humidity
00:00 +19°C° 0.1 mm 1 mps 740 mmHg 93%
01:00 +19°C° 0.1 mm 1 mps 740 mmHg 94%
02:00 +18°C° 0.1 mm 1 mps 739 mmHg 96%
03:00 +18°C° 0.1 mm 1 mps 739 mmHg 96%
04:00 +18°C° 0.1 mm 1 mps 739 mmHg 96%
05:00 +19°C° 0.1 mm 1 mps 739 mmHg 95%
06:00 +19°C° 0 mm 1 mps 739 mmHg 90%
07:00 +20°C° 0 mm 1 mps 739 mmHg 85%
08:00 +21°C° 0 mm 1 mps 738 mmHg 79%
09:00 +23°C° 0 mm 1 mps 738 mmHg 74%
10:00 +24°C° 0 mm 1 mps 738 mmHg 68%
11:00 +25°C° 0 mm 1 mps 738 mmHg 62%
12:00 +25°C° 0.2 mm 1 mps 738 mmHg 63%
13:00 +25°C° 0.2 mm 1 mps 738 mmHg 64%
14:00 +26°C° 0.2 mm 2 mps 738 mmHg 65%
15:00 +25°C° 0.5 mm 2 mps 738 mmHg 70%
16:00 +24°C° 0.5 mm 2 mps 738 mmHg 76%
17:00 +24°C° 0.5 mm 2 mps 738 mmHg 81%
18:00 +23°C° 0.2 mm 2 mps 738 mmHg 85%
19:00 +20°C° 0.2 mm 2 mps 738 mmHg 88%
20:00 +20°C° 0.2 mm 1 mps 738 mmHg 92%
21:00 +20°C° 0 mm 1 mps 738 mmHg 93%
22:00 +19°C° 0 mm 1 mps 738 mmHg 93%
23:00 +19°C° 0 mm 1 mps 738 mmHg 94%
Show more

We Need Your Consent

Meteoprog and our Service Providers may store and access personal data such as cookies, device identifiers or other similar technologies on your device and process such data to personalise content and ads, as well as provide social media features and to analyse the traffic.

  • Store and/or access information on your device

    Cookies, device identifiers or other information can be stored or accessed on your device for the purposes indicated above.

  • Personalised ads and content, ad and content measurement, audience insights, and products development

    Ads and content can be personalised based on a profile. More data can be added to better personalise ads and content. Ad and content performance can be measured. Insights about the audience who saw the ads and content can be derived. Such data can be used to develop or improve user’s experience, systems and software.

By clicking ‘I Agree’ you will allow the use of indicated cookies, device identifiers, web beacons or other similar technologies. Your settings can be changed in the browser on your device.

For certain purposes, legitimate interests may be relied on, rather than consent. You can read more about this in our Privacy and Cookie Policy.